{"data":{"norad_id":39191,"epoch":"2026-09-18T14:06:27.766368Z","epoch_age_seconds":179437,"freshness":"STALE","line1":"1 39191U 13031D   26261.58782137 -.00000028  00000+0  00000+0 0  9998","line2":"2 39191   0.0610 337.9360 0004859 174.5571 207.5346  5.00116123241349","mean_motion":5.00116123,"eccentricity":0.0004859,"inclination_deg":0.061,"raan_deg":337.936,"arg_perigee_deg":174.5571,"mean_anomaly_deg":207.5346,"bstar":0,"rev_number":24134,"period_min":287.9331286826,"perigee_km":8058.8598759027,"apogee_km":8072.8965698963,"semimajor_km":14444.0152229,"source":"CELESTRAK","updated_at":"2026-09-20T09:00:35.681638Z"}}